{"data":{"norad_id":54109,"epoch":"2026-09-20T05:09:05.700384Z","epoch_age_seconds":183537,"freshness":"STALE","line1":"1 54109U 22137A   26263.21464931  .00010276  00000+0  16072-3 0  9997","line2":"2 54109  96.9077 318.7499 0010533  42.0185 318.1876 15.53879702221097","mean_motion":15.53879702,"eccentricity":0.0010533,"inclination_deg":96.9077,"raan_deg":318.7499,"arg_perigee_deg":42.0185,"mean_anomaly_deg":318.1876,"bstar":0.00016072,"rev_number":22109,"period_min":92.671266517387,"perigee_km":398.2660425335,"apogee_km":412.5562650743,"semimajor_km":6783.5481538039,"source":"CELESTRAK","updated_at":"2026-09-21T09:00:09.392904Z"}}